Station WPOW1 - West Point, WA Image indicating link to RSS feed of recent meteorological observations for station WPOW1


Conditions at WPOW1 as of
(7:00 am PDT)
1400 GMT on 04/15/2024:
     

Click on the graph icon in the table below to see a time series plot of the last five days of that observation.

5-day plot - Wind Direction Wind Direction (WDIR): NE ( 50 deg true )
5-day plot - Wind Speed Wind Speed (WSPD):2.1 m/s
5-day plot - Wind Gust Wind Gust (GST):2.6 m/s
5-day plot - Atmospheric Pressure Atmospheric Pressure (PRES):1022.7 mb
5-day plot - Pressure Tendency Pressure Tendency (PTDY): +1.5 mb ( Rising )
5-day plot - Air Temperature Air Temperature (ATMP): 7.9 °C
5-day plot - Dew Point Dew Point (DEWP): 6.5 °C
5-day plot - Wind Chill Wind Chill (CHILL): 6.7 °C
5-day plot - Wind Speed at 10 Meters Wind Speed at 10 meters (WSPD10M): 2 m/s
5-day plot - Wind Speed at 20 Meters Wind Speed at 20 meters (WSPD20M): 2 m/s
5-day plot -  Wind Speed, Wind Gust and Atmospheric Pressure Combined plot of Wind Speed, Gust, and Air Pressure
Continuous Winds
TIME
(PDT)
5-day plot - Wind Direction WDIR 5-day plot - Wind Speed WSPD
7:00 amNE ( 47 deg ) 2.1 m/s
6:50 amNE ( 50 deg ) 2.1 m/s
6:40 amNE ( 55 deg ) 2.1 m/s
6:30 amNE ( 54 deg ) 2.6 m/s
6:20 amENE ( 58 deg ) 2.6 m/s
6:10 amENE ( 57 deg ) 2.6 m/s
 
Peak gust during the measurement hour
TIME
(PDT)
5-day plot - Gust Direction GDR 5-day plot - Gust Speed GST
6:21 amNE ( 50 deg ) 3.6 m/s
Previous observations
TIME
(PDT)
5-day plot - Wind Direction
WDIR
 
5-day plot - Wind Speed
WSPD
m/s
5-day plot - Wind Gust
GST
m/s
5-day plot - Wave Height
WVHT
m
5-day plot - Dominant Wave Period
DPD
sec
5-day plot - Average Wave Period
APD
sec
5-day plot - Mean Wave Direction
MWD
 
5-day plot - Atmospheric Pressure
PRES
mb
5-day plot - Pressure Tendency
PTDY
mb
5-day plot - Air Temperature
ATMP
°C
5-day plot - Water Temperature
WTMP
°C
5-day plot - Dew Point
DEWP
°C
5-day plot - Salinity
SAL
psu
5-day plot - Visibility
VIS
km
5-day plot - Tide (above MLLW)
TIDE
m
2024-04-15 06:00 am NE 3 3----1022.4 +1.4 8.0- 5.8---
2024-04-15 05:00 am S 5 6----1021.7 +1.1 8.6- 5.4---
2024-04-15 04:00 amSSE 8 9----1021.2 +0.8 8.9- 5.0---
2024-04-15 03:00 am S 7 8----1021.0 +1.1 9.3- 5.3---
2024-04-15 02:00 am S 7 8----1020.6 +1.3 9.3- 5.5---
2024-04-15 01:00 am S 8 8----1020.4 +1.9 9.3- 5.6---
2024-04-15 12:00 amSSW 9 9----1019.9 +2.5 9.4- 6.2---
2024-04-14 11:00 pm S 7 7----1019.3 +3.0 9.8- 7.2---
2024-04-14 10:00 pmNNW 3 3----1018.5 +2.6 10.1- 8.8---
2024-04-14 09:00 pm N 6 6----1017.4 +1.5 11.0- 8.6---
2024-04-14 08:00 pm N 4 5----1016.3 +0.0 11.4- 8.7---
2024-04-14 07:00 pmNNE 5 6----1015.9 +0.0 12.0- 8.2---
2024-04-14 06:00 pm NE 5 6----1015.9 +0.0 12.4- 7.6---
2024-04-14 05:00 pmENE 4 4----1016.1 -0.4 13.4- 7.4---
2024-04-14 04:00 pm NE 3 3----1016.0 -0.5 13.0- 7.8---
2024-04-14 03:00 pmNNE 3 3----1016.1 -0.4 13.1- 7.6---
2024-04-14 02:00 pmNNE 2 3----1016.5 +0.0 13.0- 5.9---
2024-04-14 01:00 pm NE 2 2----1016.5 +0.4 12.3- 7.3---
2024-04-14 12:00 pmNNW 1 1----1016.5 +0.3 11.9- 7.1---
2024-04-14 11:00 amNNE 0 1----1016.6 +0.7 10.6- 7.6---
2024-04-14 10:00 amNNE 1 2----1016.1 +0.7 9.6- 7.3---
2024-04-14 09:00 amNNW 1 1----1016.2 +1.2 9.1- 7.7---
2024-04-14 08:00 amNNW 4 5----1015.9 +1.1 8.3- 7.8---
2024-04-14 07:00 am N 4 4----1015.4 +1.1 7.9- 7.9---